Time,TemperatureF,DewpointF,PressureIn,WindDirection,WindDirectionDegrees,WindSpeedMPH,WindSpeedGustMPH,Humidity,HourlyPrecipIn,Conditions,Clouds,dailyrainin,SolarRadiationWatts/m^2,SoftwareType,DateUTC
2013-04-13 00:00:00,79.5,73.9,29.97,SSE,162,4.0,5.0,83,0.00,,OVC095,0.00,0.00,VWS V14.01,2013-04-13 04:00:00,
2013-04-13 00:05:00,79.4,74.2,29.97,SSW,200,5.0,5.0,84,0.00,,OVC095,0.00,0.00,VWS V14.01,2013-04-13 04:05:00,
2013-04-13 00:10:00,79.4,74.2,29.97,South,175,3.0,5.0,84,0.00,,OVC095,0.00,0.00,VWS V14.01,2013-04-13 04:10:00,
2013-04-13 00:15:00,79.3,74.4,29.97,SSW,209,4.0,4.0,85,0.00,,OVC095,0.00,0.00,VWS V14.01,2013-04-13 04:15:00,
2013-04-13 00:20:00,79.3,74.4,29.97,SSW,206,1.0,5.0,85,0.00,,OVC095,0.00,0.00,VWS V14.01,2013-04-13 04:20:00,
2013-04-13 00:25:00,79.2,74.7,29.97,South,181,3.0,3.0,86,0.00,,OVC095,0.00,0.00,VWS V14.01,2013-04-13 04:25:00,
2013-04-13 00:30:00,79.1,74.6,29.97,South,185,3.0,4.0,86,0.00,,OVC095,0.00,0.00,VWS V14.01,2013-04-13 04:30:00,
2013-04-13 00:35:00,79.0,74.5,29.97,South,172,4.0,7.0,86,0.00,,OVC095,0.00,0.00,VWS V14.01,2013-04-13 04:35:00,
2013-04-13 00:40:00,79.0,74.5,29.97,South,177,3.0,5.0,86,0.00,,OVC095,0.00,0.00,VWS V14.01,2013-04-13 04:40:00,
2013-04-13 00:45:00,78.9,74.4,29.97,SSW,209,1.0,4.0,86,0.00,,OVC110,0.00,0.00,VWS V14.01,2013-04-13 04:45:00,
2013-04-13 00:50:00,78.9,74.7,29.97,SSE,152,1.0,5.0,87,0.00,,OVC110,0.00,0.00,VWS V14.01,2013-04-13 04:50:00,
2013-04-13 00:55:00,79.0,75.2,29.97,South,178,1.0,3.0,88,0.00,,OVC110,0.00,0.00,VWS V14.01,2013-04-13 04:55:00,
2013-04-13 01:00:00,78.9,75.1,29.97,SSE,153,1.0,4.0,88,0.00,,OVC110,0.00,0.00,VWS V14.01,2013-04-13 05:00:00,
2013-04-13 01:05:00,78.8,74.9,29.97,South,173,1.0,3.0,88,0.00,,OVC110,0.00,0.00,VWS V14.01,2013-04-13 05:05:00,
2013-04-13 01:10:00,78.7,74.8,29.96,SE,131,4.0,5.0,88,0.00,,OVC110,0.00,0.00,VWS V14.01,2013-04-13 05:10:00,
2013-04-13 01:15:00,78.7,74.8,29.96,SSE,161,3.0,5.0,88,0.00,,OVC110,0.00,0.00,VWS V14.01,2013-04-13 05:15:00,
2013-04-13 01:20:00,78.7,74.8,29.96,SSW,201,2.0,6.0,88,0.00,,OVC110,0.00,0.00,VWS V14.01,2013-04-13 05:20:00,
2013-04-13 01:25:00,78.6,74.8,29.96,SSW,205,3.0,5.0,88,0.00,,OVC110,0.00,0.00,VWS V14.01,2013-04-13 05:25:00,
2013-04-13 01:30:00,78.5,74.7,29.96,SW,214,4.0,6.0,88,0.00,,OVC110,0.00,0.00,VWS V14.01,2013-04-13 05:30:00,
2013-04-13 01:35:00,78.5,74.7,29.96,SSW,207,3.0,7.0,88,0.00,,BKN085,0.00,0.00,VWS V14.01,2013-04-13 05:35:00,
2013-04-13 01:40:00,78.4,74.6,29.95,SSW,211,5.0,5.0,88,0.00,,BKN085,0.00,0.00,VWS V14.01,2013-04-13 05:40:00,
2013-04-13 01:45:00,78.3,74.5,29.96,SSW,209,5.0,6.0,88,0.00,,BKN085,0.00,0.00,VWS V14.01,2013-04-13 05:45:00,
2013-04-13 01:50:00,78.3,74.8,29.95,SW,218,3.0,8.0,89,0.00,,BKN085,0.00,0.00,VWS V14.01,2013-04-13 05:50:00,
2013-04-13 01:55:00,78.2,74.7,29.95,South,175,2.0,8.0,89,0.00,,BKN085,0.00,0.00,VWS V14.01,2013-04-13 05:55:00,
2013-04-13 02:00:00,78.1,74.3,29.95,SW,214,5.0,8.0,88,0.00,,BKN085,0.00,0.00,VWS V14.01,2013-04-13 06:00:00,
2013-04-13 02:05:00,78.0,74.2,29.95,SSW,202,6.0,7.0,88,0.00,,BKN085,0.00,0.00,VWS V14.01,2013-04-13 06:05:00,
2013-04-13 02:10:00,77.9,74.1,29.95,SW,215,3.0,7.0,88,0.00,,BKN085,0.00,0.00,VWS V14.01,2013-04-13 06:10:00,
2013-04-13 02:15:00,77.9,74.1,29.95,SSW,199,3.0,5.0,88,0.00,,BKN085,0.00,0.00,VWS V14.01,2013-04-13 06:15:00,
2013-04-13 02:20:00,78.0,74.2,29.95,SSW,211,5.0,7.0,88,0.00,,BKN085,0.00,0.00,VWS V14.01,2013-04-13 06:20:00,
2013-04-13 02:25:00,78.0,74.2,29.95,SSW,196,3.0,7.0,88,0.00,,BKN085,0.00,0.00,VWS V14.01,2013-04-13 06:25:00,
2013-04-13 02:30:00,78.0,74.2,29.95,South,184,3.0,7.0,88,0.00,,BKN085,0.00,0.00,VWS V14.01,2013-04-13 06:30:00,
2013-04-13 02:35:00,78.0,74.2,29.95,SSW,209,6.0,8.0,88,0.00,,FEW013,0.00,0.00,VWS V14.01,2013-04-13 06:35:00,
2013-04-13 02:40:00,78.0,74.2,29.95,South,190,12.0,12.0,88,0.00,,CLR,0.00,0.00,VWS V14.01,2013-04-13 06:40:00,
2013-04-13 02:41:00,78.0,74.2,29.95,South,183,4.0,7.0,88,0.00,,FEW013,0.00,0.00,VWS V14.01,2013-04-13 06:41:00,
2013-04-13 02:45:00,78.0,74.2,29.95,SSW,213,4.0,7.0,88,0.00,,CLR,0.00,0.00,VWS V14.01,2013-04-13 06:45:00,
2013-04-13 02:49:00,78.0,74.2,29.95,South,175,2.0,2.0,88,0.00,,FEW013,0.00,0.00,VWS V14.01,2013-04-13 06:49:00,
2013-04-13 02:50:00,78.0,74.2,29.95,South,175,2.0,2.0,88,0.00,,CLR,0.00,0.00,VWS V14.01,2013-04-13 06:50:00,
2013-04-13 02:54:00,78.1,74.3,29.94,SSW,202,3.0,4.0,88,0.00,,FEW013,0.00,0.00,VWS V14.01,2013-04-13 06:54:00,
2013-04-13 02:55:00,78.1,74.3,29.94,SSW,206,3.0,4.0,88,0.00,,CLR,0.00,0.00,VWS V14.01,2013-04-13 06:55:00,
2013-04-13 02:59:00,78.2,74.7,29.94,SSW,202,5.0,7.0,89,0.00,,FEW013,0.00,0.00,VWS V14.01,2013-04-13 06:59:00,
2013-04-13 03:00:00,78.2,74.7,29.94,SW,217,4.0,7.0,89,0.00,,CLR,0.00,0.00,VWS V14.01,2013-04-13 07:00:00,
2013-04-13 03:04:00,78.2,74.7,29.94,SSW,196,6.0,7.0,89,0.00,,FEW013,0.00,0.00,VWS V14.01,2013-04-13 07:04:00,
2013-04-13 03:05:00,78.2,74.7,29.94,South,178,3.0,7.0,89,0.00,,CLR,0.00,0.00,VWS V14.01,2013-04-13 07:05:00,
2013-04-13 03:10:00,78.3,74.8,29.94,SW,231,4.0,5.0,89,0.00,,FEW013,0.00,0.00,VWS V14.01,2013-04-13 07:10:00,
2013-04-13 03:15:00,78.3,74.5,29.94,SW,227,6.0,6.0,88,0.00,,FEW013,0.00,0.00,VWS V14.01,2013-04-13 07:15:00,
2013-04-13 03:20:00,78.3,74.5,29.94,SSW,204,6.0,8.0,88,0.00,,FEW013,0.00,0.00,VWS V14.01,2013-04-13 07:20:00,
2013-04-13 03:25:00,78.3,74.5,29.93,SSW,199,9.0,10.0,88,0.00,,CLR,0.00,0.00,VWS V14.01,2013-04-13 07:25:00,
2013-04-13 03:26:00,78.3,74.5,29.93,SSE,162,3.0,9.0,88,0.00,,FEW013,0.00,0.00,VWS V14.01,2013-04-13 07:26:00,
2013-04-13 03:30:00,78.4,74.6,29.93,South,180,3.0,5.0,88,0.00,,CLR,0.00,0.00,VWS V14.01,2013-04-13 07:30:00,
2013-04-13 03:32:00,78.3,74.5,29.93,SSE,151,4.0,11.0,88,0.00,,FEW013,0.00,0.00,VWS V14.01,2013-04-13 07:32:00,
2013-04-13 03:35:00,78.3,74.5,29.93,SSW,198,8.0,9.0,88,0.00,,CLR,0.00,0.00,VWS V14.01,2013-04-13 07:35:00,
2013-04-13 03:37:00,78.3,74.5,29.92,SW,217,1.0,8.0,88,0.00,,CLR,0.00,0.00,VWS V14.01,2013-04-13 07:37:00,
2013-04-13 03:40:00,78.2,74.4,29.92,SSW,194,4.0,10.0,88,0.00,,CLR,0.00,0.00,VWS V14.01,2013-04-13 07:40:00,
2013-04-13 03:42:00,78.2,74.4,29.92,South,175,5.0,6.0,88,0.00,,CLR,0.00,0.00,VWS V14.01,2013-04-13 07:42:00,
2013-04-13 03:45:00,78.2,74.4,29.92,SSE,162,5.0,6.0,88,0.00,,CLR,0.00,0.00,VWS V14.01,2013-04-13 07:45:00,
2013-04-13 03:47:00,78.2,74.0,29.92,SSE,163,5.0,12.0,87,0.00,,CLR,0.00,0.00,VWS V14.01,2013-04-13 07:47:00,
2013-04-13 03:50:00,78.1,73.9,29.92,South,177,5.0,11.0,87,0.00,,CLR,0.00,0.00,VWS V14.01,2013-04-13 07:50:00,
2013-04-13 03:52:00,78.0,73.8,29.92,SSW,209,7.0,7.0,87,0.00,,CLR,0.00,0.00,VWS V14.01,2013-04-13 07:52:00,
2013-04-13 03:55:00,78.0,73.5,29.92,SSE,167,3.0,7.0,86,0.00,,CLR,0.00,0.00,VWS V14.01,2013-04-13 07:55:00,
2013-04-13 03:57:00,77.7,72.5,29.92,South,173,3.0,9.0,84,0.00,,CLR,0.00,0.00,VWS V14.01,2013-04-13 07:57:00,
2013-04-13 04:00:00,77.5,72.3,29.92,SSW,207,8.0,10.0,84,0.00,,CLR,0.00,0.00,VWS V14.01,2013-04-13 08:00:00,
2013-04-13 04:02:00,77.3,71.7,29.92,SSE,165,3.0,12.0,83,0.00,,CLR,0.00,0.00,VWS V14.01,2013-04-13 08:02:00,
2013-04-13 04:05:00,77.2,71.6,29.92,SW,218,9.0,9.0,83,0.00,,CLR,0.00,0.00,VWS V14.01,2013-04-13 08:05:00,
2013-04-13 04:07:00,77.0,71.1,29.92,SSW,204,4.0,8.0,82,0.00,,CLR,0.00,0.00,VWS V14.01,2013-04-13 08:07:00,
2013-04-13 04:10:00,77.0,71.1,29.92,SSW,199,3.0,8.0,82,0.00,,CLR,0.00,0.00,VWS V14.01,2013-04-13 08:10:00,
2013-04-13 04:13:00,77.0,71.4,29.92,SSW,205,6.0,12.0,83,0.00,,CLR,0.00,0.00,VWS V14.01,2013-04-13 08:13:00,
2013-04-13 04:15:00,76.9,71.3,29.92,South,175,3.0,10.0,83,0.00,,CLR,0.00,0.00,VWS V14.01,2013-04-13 08:15:00,
2013-04-13 04:18:00,77.0,71.4,29.92,SW,236,3.0,7.0,83,0.00,,CLR,0.00,0.00,VWS V14.01,2013-04-13 08:18:00,
2013-04-13 04:20:00,77.0,71.4,29.92,South,184,5.0,5.0,83,0.00,,CLR,0.00,0.00,VWS V14.01,2013-04-13 08:20:00,
2013-04-13 04:23:00,76.9,71.3,29.92,SSW,207,4.0,9.0,83,0.00,,CLR,0.00,0.00,VWS V14.01,2013-04-13 08:23:00,
2013-04-13 04:25:00,76.9,71.7,29.92,SSW,202,2.0,9.0,84,0.00,,CLR,0.00,0.00,VWS V14.01,2013-04-13 08:25:00,
2013-04-13 04:28:00,76.8,71.6,29.92,SSW,196,3.0,6.0,84,0.00,,CLR,0.00,0.00,VWS V14.01,2013-04-13 08:28:00,
2013-04-13 04:30:00,76.8,71.6,29.92,SW,232,6.0,6.0,84,0.00,,CLR,0.00,0.00,VWS V14.01,2013-04-13 08:30:00,
2013-04-13 04:33:00,76.7,71.5,29.92,South,182,4.0,7.0,84,0.00,,CLR,0.00,0.00,VWS V14.01,2013-04-13 08:33:00,
2013-04-13 04:35:00,76.6,71.8,29.92,South,189,4.0,7.0,85,0.00,,CLR,0.00,0.00,VWS V14.01,2013-04-13 08:35:00,
2013-04-13 04:38:00,76.5,71.7,29.92,SSE,161,5.0,9.0,85,0.00,,CLR,0.00,0.00,VWS V14.01,2013-04-13 08:38:00,
2013-04-13 04:40:00,76.5,71.7,29.92,South,184,5.0,8.0,85,0.00,,CLR,0.00,0.00,VWS V14.01,2013-04-13 08:40:00,
2013-04-13 04:43:00,76.4,71.6,29.92,SW,217,4.0,6.0,85,0.00,,FEW110,0.00,0.00,VWS V14.01,2013-04-13 08:43:00,
2013-04-13 04:45:00,76.4,71.6,29.92,SSW,204,3.0,6.0,85,0.00,,CLR,0.00,0.00,VWS V14.01,2013-04-13 08:45:00,
2013-04-13 04:48:00,76.3,71.5,29.92,South,185,4.0,4.0,85,0.00,,FEW110,0.00,0.00,VWS V14.01,2013-04-13 08:48:00,
2013-04-13 04:50:00,76.3,71.5,29.92,SW,231,3.0,4.0,85,0.00,,CLR,0.00,0.00,VWS V14.01,2013-04-13 08:50:00,
2013-04-13 04:53:00,76.2,71.4,29.92,SSW,205,6.0,6.0,85,0.00,,FEW110,0.00,0.00,VWS V14.01,2013-04-13 08:53:00,
2013-04-13 04:55:00,76.2,71.4,29.92,South,170,5.0,6.0,85,0.00,,CLR,0.00,0.00,VWS V14.01,2013-04-13 08:55:00,
2013-04-13 04:59:00,76.2,71.4,29.92,SE,142,5.0,9.0,85,0.00,,FEW110,0.00,0.00,VWS V14.01,2013-04-13 08:59:00,
2013-04-13 05:00:00,76.2,71.4,29.92,SSE,167,6.0,9.0,85,0.00,,CLR,0.00,0.00,VWS V14.01,2013-04-13 09:00:00,
2013-04-13 05:04:00,76.2,71.4,29.92,South,177,4.0,11.0,85,0.00,,FEW110,0.00,0.00,VWS V14.01,2013-04-13 09:04:00,
2013-04-13 05:05:00,76.2,71.4,29.92,SSW,196,4.0,11.0,85,0.00,,CLR,0.00,0.00,VWS V14.01,2013-04-13 09:05:00,
2013-04-13 05:09:00,76.4,71.6,29.92,South,183,4.0,11.0,85,0.00,,FEW110,0.00,0.00,VWS V14.01,2013-04-13 09:09:00,
2013-04-13 05:10:00,76.4,71.6,29.92,South,184,3.0,11.0,85,0.00,,CLR,0.00,0.00,VWS V14.01,2013-04-13 09:10:00,
2013-04-13 05:14:00,76.4,71.6,29.92,SSE,161,6.0,12.0,85,0.00,,FEW110,0.00,0.00,VWS V14.01,2013-04-13 09:14:00,
2013-04-13 05:15:00,76.4,71.6,29.92,SSE,161,6.0,12.0,85,0.00,,CLR,0.00,0.00,VWS V14.01,2013-04-13 09:15:00,
2013-04-13 05:19:00,76.5,71.7,29.92,SSW,208,4.0,11.0,85,0.00,,FEW110,0.00,0.00,VWS V14.01,2013-04-13 09:19:00,
2013-04-13 05:20:00,76.5,71.7,29.92,SSW,208,4.0,11.0,85,0.00,,CLR,0.00,0.00,VWS V14.01,2013-04-13 09:20:00,
2013-04-13 05:24:00,76.5,71.7,29.92,SSW,200,6.0,8.0,85,0.00,,FEW110,0.00,0.00,VWS V14.01,2013-04-13 09:24:00,
2013-04-13 05:25:00,76.5,71.7,29.92,SW,218,6.0,8.0,85,0.00,,CLR,0.00,0.00,VWS V14.01,2013-04-13 09:25:00,
2013-04-13 05:29:00,76.5,71.7,29.92,South,175,6.0,7.0,85,0.00,,FEW110,0.00,0.00,VWS V14.01,2013-04-13 09:29:00,
2013-04-13 05:30:00,76.5,71.7,29.92,SSW,207,10.0,10.0,85,0.00,,CLR,0.00,0.00,VWS V14.01,2013-04-13 09:30:00,
2013-04-13 05:33:00,76.4,71.2,29.91,South,184,3.0,5.0,84,0.00,,FEW110,0.00,0.00,VWS V14.01,2013-04-13 09:33:00,
2013-04-13 05:35:00,76.4,71.2,29.91,South,179,3.0,5.0,84,0.00,,CLR,0.00,0.00,VWS V14.01,2013-04-13 09:35:00,
2013-04-13 05:38:00,76.4,71.2,29.91,SW,235,6.0,11.0,84,0.00,,FEW110,0.00,0.00,VWS V14.01,2013-04-13 09:38:00,
2013-04-13 05:40:00,76.4,71.2,29.91,South,180,4.0,11.0,84,0.00,,CLR,0.00,0.00,VWS V14.01,2013-04-13 09:40:00,
2013-04-13 05:43:00,76.3,71.1,29.91,SSW,213,4.0,7.0,84,0.00,,FEW080,0.00,0.00,VWS V14.01,2013-04-13 09:43:00,
2013-04-13 05:45:00,76.3,71.1,29.91,SW,233,3.0,6.0,84,0.00,,CLR,0.00,0.00,VWS V14.01,2013-04-13 09:45:00,
2013-04-13 05:49:00,76.2,71.0,29.91,SW,221,3.0,5.0,84,0.00,,FEW080,0.00,0.00,VWS V14.01,2013-04-13 09:49:00,
2013-04-13 05:50:00,76.2,71.0,29.91,SW,221,3.0,5.0,84,0.00,,CLR,0.00,0.00,VWS V14.01,2013-04-13 09:50:00,
2013-04-13 05:54:00,76.1,70.9,29.91,SSW,211,5.0,5.0,84,0.00,,FEW080,0.00,0.00,VWS V14.01,2013-04-13 09:54:00,
2013-04-13 05:55:00,76.1,70.9,29.91,SSW,211,5.0,5.0,84,0.00,,CLR,0.00,0.00,VWS V14.01,2013-04-13 09:55:00,
2013-04-13 05:59:00,76.1,70.9,29.91,SW,220,4.0,4.0,84,0.00,,FEW080,0.00,0.00,VWS V14.01,2013-04-13 09:59:00,
2013-04-13 06:00:00,76.1,70.9,29.91,SW,232,5.0,5.0,84,0.00,,CLR,0.00,0.00,VWS V14.01,2013-04-13 10:00:00,
2013-04-13 06:04:00,76.0,70.8,29.92,South,171,2.0,3.0,84,0.00,,FEW080,0.00,0.00,VWS V14.01,2013-04-13 10:04:00,
2013-04-13 06:05:00,76.0,70.8,29.92,South,169,2.0,3.0,84,0.00,,CLR,0.00,0.00,VWS V14.01,2013-04-13 10:05:00,
2013-04-13 06:09:00,76.0,70.8,29.91,SSE,160,3.0,5.0,84,0.00,,FEW080,0.00,0.00,VWS V14.01,2013-04-13 10:09:00,
2013-04-13 06:10:00,76.0,70.8,29.91,SSE,161,4.0,6.0,84,0.00,,CLR,0.00,0.00,VWS V14.01,2013-04-13 10:10:00,
2013-04-13 06:14:00,76.0,70.8,29.91,South,180,3.0,4.0,84,0.00,,FEW080,0.00,0.00,VWS V14.01,2013-04-13 10:14:00,
2013-04-13 06:15:00,76.0,70.8,29.91,SSW,198,3.0,6.0,84,0.00,,CLR,0.00,0.00,VWS V14.01,2013-04-13 10:15:00,
2013-04-13 06:19:00,76.0,70.8,29.91,SSE,167,3.0,5.0,84,0.00,,FEW080,0.00,0.00,VWS V14.01,2013-04-13 10:19:00,
2013-04-13 06:20:00,76.0,70.8,29.91,South,180,4.0,5.0,84,0.00,,CLR,0.00,0.00,VWS V14.01,2013-04-13 10:20:00,
2013-04-13 06:24:00,76.0,70.8,29.91,SSE,153,2.0,6.0,84,0.00,,FEW080,0.00,0.00,VWS V14.01,2013-04-13 10:24:00,
2013-04-13 06:25:00,76.0,70.8,29.91,SE,128,4.0,6.0,84,0.00,,CLR,0.00,0.00,VWS V14.01,2013-04-13 10:25:00,
2013-04-13 06:29:00,76.0,70.8,29.91,SSE,156,3.0,5.0,84,0.00,,FEW080,0.00,0.00,VWS V14.01,2013-04-13 10:29:00,
2013-04-13 06:30:00,76.0,70.8,29.91,SSE,167,4.0,6.0,84,0.00,,CLR,0.00,0.00,VWS V14.01,2013-04-13 10:30:00,
2013-04-13 06:34:00,76.0,70.8,29.91,ESE,118,4.0,4.0,84,0.00,,FEW080,0.00,0.00,VWS V14.01,2013-04-13 10:34:00,
2013-04-13 06:35:00,76.0,70.8,29.91,SE,127,1.0,5.0,84,0.00,,CLR,0.00,0.00,VWS V14.01,2013-04-13 10:35:00,
2013-04-13 06:39:00,76.0,70.8,29.91,SSE,166,2.0,5.0,84,0.00,,FEW080,0.00,0.00,VWS V14.01,2013-04-13 10:39:00,
2013-04-13 06:40:00,76.0,70.8,29.91,SSE,153,3.0,5.0,84,0.00,,CLR,0.00,0.00,VWS V14.01,2013-04-13 10:40:00,
2013-04-13 06:45:00,76.1,71.3,29.91,SSE,165,2.0,6.0,85,0.00,,SCT110,0.00,0.00,VWS V14.01,2013-04-13 10:45:00,
2013-04-13 06:50:00,76.3,71.8,29.91,SSW,210,4.0,4.0,86,0.00,,SCT110,0.00,0.00,VWS V14.01,2013-04-13 10:50:00,
2013-04-13 06:55:00,76.5,72.3,29.91,SSE,161,3.0,5.0,87,0.00,,SCT110,0.00,0.00,VWS V14.01,2013-04-13 10:55:00,
2013-04-13 07:00:00,76.7,72.9,29.91,SSE,163,5.0,8.0,88,0.00,,SCT110,0.00,0.00,VWS V14.01,2013-04-13 11:00:00,
2013-04-13 07:05:00,76.8,73.0,29.91,SSW,201,5.0,10.0,88,0.00,,SCT110,0.00,0.00,VWS V14.01,2013-04-13 11:05:00,
2013-04-13 07:10:00,76.8,72.6,29.91,South,171,8.0,8.0,87,0.00,,SCT110,0.00,5.00,VWS V14.01,2013-04-13 11:10:00,
2013-04-13 07:15:00,76.8,72.6,29.91,South,175,3.0,7.0,87,0.00,,SCT110,0.00,9.00,VWS V14.01,2013-04-13 11:15:00,
2013-04-13 07:20:00,76.8,72.3,29.90,South,173,5.0,8.0,86,0.00,,SCT110,0.00,12.00,VWS V14.01,2013-04-13 11:20:00,
2013-04-13 07:25:00,76.8,71.9,29.90,SSE,162,4.0,9.0,85,0.00,,CLR,0.00,14.00,VWS V14.01,2013-04-13 11:25:00,
2013-04-13 07:26:00,76.8,71.9,29.90,South,175,4.0,8.0,85,0.00,,SCT110,0.00,14.00,VWS V14.01,2013-04-13 11:26:00,
2013-04-13 07:30:00,76.9,72.1,29.90,SW,217,6.0,8.0,85,0.00,,CLR,0.00,16.00,VWS V14.01,2013-04-13 11:30:00,
2013-04-13 07:31:00,76.9,72.4,29.91,SSE,154,6.0,10.0,86,0.00,,SCT110,0.00,18.00,VWS V14.01,2013-04-13 11:31:00,
2013-04-13 07:35:00,77.0,72.5,29.91,SSE,165,6.0,10.0,86,0.00,,CLR,0.00,19.00,VWS V14.01,2013-04-13 11:35:00,
2013-04-13 07:36:00,77.2,72.7,29.91,WSW,237,5.0,10.0,86,0.00,,SCT110,0.00,21.00,VWS V14.01,2013-04-13 11:36:00,
2013-04-13 07:40:00,77.3,72.8,29.91,SSE,150,6.0,10.0,86,0.00,,CLR,0.00,23.00,VWS V14.01,2013-04-13 11:40:00,
2013-04-13 07:41:00,77.3,73.1,29.91,SSW,207,6.0,9.0,87,0.00,,CLR,0.00,28.00,VWS V14.01,2013-04-13 11:41:00,
2013-04-13 07:45:00,77.4,73.2,29.91,South,177,5.0,10.0,87,0.00,,CLR,0.00,35.00,VWS V14.01,2013-04-13 11:45:00,
2013-04-13 07:46:00,77.3,73.1,29.91,SSE,150,5.0,9.0,87,0.00,,CLR,0.00,46.00,VWS V14.01,2013-04-13 11:46:00,
2013-04-13 07:50:00,77.4,73.2,29.92,SW,216,3.0,6.0,87,0.00,,CLR,0.00,54.00,VWS V14.01,2013-04-13 11:50:00,
2013-04-13 07:51:00,77.4,73.2,29.92,South,172,2.0,9.0,87,0.00,,CLR,0.00,74.00,VWS V14.01,2013-04-13 11:51:00,
2013-04-13 07:55:00,77.4,73.2,29.92,SSW,213,7.0,8.0,87,0.00,,CLR,0.00,86.00,VWS V14.01,2013-04-13 11:55:00,
2013-04-13 07:57:00,77.4,73.2,29.92,SSE,155,3.0,5.0,87,0.00,,CLR,0.00,104.00,VWS V14.01,2013-04-13 11:57:00,
2013-04-13 08:00:00,77.5,73.0,29.92,SSW,211,5.0,9.0,86,0.00,,CLR,0.00,116.00,VWS V14.01,2013-04-13 12:00:00,
2013-04-13 08:02:00,77.7,73.2,29.92,SSE,156,3.0,5.0,86,0.00,,CLR,0.00,134.00,VWS V14.01,2013-04-13 12:02:00,
2013-04-13 08:05:00,77.9,73.4,29.92,SSW,204,4.0,4.0,86,0.00,,CLR,0.00,141.00,VWS V14.01,2013-04-13 12:05:00,
2013-04-13 08:07:00,78.2,73.3,29.92,South,184,3.0,9.0,85,0.00,,CLR,0.00,134.00,VWS V14.01,2013-04-13 12:07:00,
2013-04-13 08:10:00,78.3,73.1,29.92,South,186,4.0,9.0,84,0.00,,CLR,0.00,127.00,VWS V14.01,2013-04-13 12:10:00,
2013-04-13 08:12:00,78.6,73.0,29.92,SE,141,4.0,7.0,83,0.00,,CLR,0.00,128.00,VWS V14.01,2013-04-13 12:12:00,
2013-04-13 08:15:00,78.6,73.0,29.92,South,184,3.0,7.0,83,0.00,,CLR,0.00,130.00,VWS V14.01,2013-04-13 12:15:00,
2013-04-13 08:17:00,78.9,72.9,29.92,South,171,9.0,9.0,82,0.00,,CLR,0.00,155.00,VWS V14.01,2013-04-13 12:17:00,
2013-04-13 08:20:00,79.0,73.0,29.92,South,175,5.0,10.0,82,0.00,,CLR,0.00,160.00,VWS V14.01,2013-04-13 12:20:00,
2013-04-13 08:22:00,79.2,72.9,29.92,SSE,157,4.0,6.0,81,0.00,,CLR,0.00,148.00,VWS V14.01,2013-04-13 12:22:00,
2013-04-13 08:25:00,79.3,73.0,29.92,SSE,153,3.0,6.0,81,0.00,,CLR,0.00,146.00,VWS V14.01,2013-04-13 12:25:00,
2013-04-13 08:27:00,79.6,73.3,29.92,South,169,3.0,8.0,81,0.00,,CLR,0.00,148.00,VWS V14.01,2013-04-13 12:27:00,
2013-04-13 08:30:00,79.7,73.4,29.92,SSE,162,6.0,11.0,81,0.00,,CLR,0.00,148.00,VWS V14.01,2013-04-13 12:30:00,
2013-04-13 08:32:00,79.8,73.4,29.92,SSE,161,9.0,9.0,81,0.00,,CLR,0.00,146.00,VWS V14.01,2013-04-13 12:32:00,
2013-04-13 08:35:00,79.8,73.5,29.92,SSW,207,4.0,10.0,81,0.00,,CLR,0.00,149.00,VWS V14.01,2013-04-13 12:35:00,
2013-04-13 08:37:00,79.9,73.6,29.92,South,173,7.0,13.0,81,0.00,,CLR,0.00,141.00,VWS V14.01,2013-04-13 12:37:00,
2013-04-13 08:40:00,80.0,73.7,29.92,SSE,164,4.0,9.0,81,0.00,,CLR,0.00,142.00,VWS V14.01,2013-04-13 12:40:00,
2013-04-13 08:42:00,80.0,74.0,29.92,SSE,165,4.0,7.0,82,0.00,,CLR,0.00,156.00,VWS V14.01,2013-04-13 12:42:00,
2013-04-13 08:45:00,80.0,74.0,29.92,SSE,159,6.0,11.0,82,0.00,,CLR,0.00,162.00,VWS V14.01,2013-04-13 12:45:00,
2013-04-13 08:47:00,80.1,74.1,29.92,SSW,211,5.0,11.0,82,0.00,,CLR,0.00,179.00,VWS V14.01,2013-04-13 12:47:00,
2013-04-13 08:50:00,80.1,74.1,29.92,SE,140,4.0,9.0,82,0.00,,CLR,0.00,183.00,VWS V14.01,2013-04-13 12:50:00,
2013-04-13 08:52:00,80.2,74.2,29.92,South,169,8.0,12.0,82,0.00,,CLR,0.00,179.00,VWS V14.01,2013-04-13 12:52:00,
2013-04-13 08:55:00,80.2,74.2,29.92,South,175,9.0,12.0,82,0.00,,CLR,0.00,181.00,VWS V14.01,2013-04-13 12:55:00,
2013-04-13 08:57:00,80.3,74.3,29.92,South,175,12.0,13.0,82,0.00,,CLR,0.00,181.00,VWS V14.01,2013-04-13 12:57:00,
2013-04-13 09:00:00,80.4,74.4,29.92,SE,137,4.0,13.0,82,0.00,,CLR,0.00,183.00,VWS V14.01,2013-04-13 13:00:00,
2013-04-13 09:02:00,80.5,74.5,29.93,SW,234,4.0,10.0,82,0.00,,CLR,0.00,181.00,VWS V14.01,2013-04-13 13:02:00,
2013-04-13 09:05:00,80.5,74.1,29.93,SSW,213,7.0,8.0,81,0.00,,CLR,0.00,179.00,VWS V14.01,2013-04-13 13:05:00,
2013-04-13 09:07:00,80.6,74.2,29.93,SSW,202,7.0,10.0,81,0.00,,CLR,0.00,160.00,VWS V14.01,2013-04-13 13:07:00,
2013-04-13 09:10:00,80.6,73.9,29.93,SSW,205,7.0,13.0,80,0.00,,CLR,0.00,160.00,VWS V14.01,2013-04-13 13:10:00,
2013-04-13 09:12:00,80.6,73.9,29.94,SSW,212,10.0,10.0,80,0.00,,CLR,0.00,174.00,VWS V14.01,2013-04-13 13:12:00,
2013-04-13 09:15:00,80.7,74.0,29.94,SSE,161,6.0,14.0,80,0.00,,CLR,0.00,179.00,VWS V14.01,2013-04-13 13:15:00,
2013-04-13 09:18:00,80.7,73.6,29.94,SW,220,6.0,14.0,79,0.00,,CLR,0.00,186.00,VWS V14.01,2013-04-13 13:18:00,
2013-04-13 09:20:00,80.7,73.6,29.94,SW,216,9.0,10.0,79,0.00,,CLR,0.00,186.00,VWS V14.01,2013-04-13 13:20:00,
2013-04-13 09:23:00,80.8,73.7,29.94,SSW,212,5.0,8.0,79,0.00,,CLR,0.00,183.00,VWS V14.01,2013-04-13 13:23:00,
2013-04-13 09:25:00,80.8,73.3,29.94,SSW,213,5.0,9.0,78,0.00,,CLR,0.00,185.00,VWS V14.01,2013-04-13 13:25:00,
2013-04-13 09:28:00,80.9,73.4,29.94,SSE,162,4.0,9.0,78,0.00,,CLR,0.00,206.00,VWS V14.01,2013-04-13 13:28:00,
2013-04-13 09:30:00,80.9,73.4,29.94,South,180,3.0,9.0,78,0.00,,CLR,0.00,213.00,VWS V14.01,2013-04-13 13:30:00,
2013-04-13 09:33:00,81.1,73.6,29.94,SSW,202,3.0,7.0,78,0.00,,CLR,0.00,253.00,VWS V14.01,2013-04-13 13:33:00,
2013-04-13 09:35:00,81.2,73.3,29.94,SSW,202,5.0,11.0,77,0.00,,CLR,0.00,258.00,VWS V14.01,2013-04-13 13:35:00,
2013-04-13 09:38:00,81.3,73.8,29.95,SW,215,8.0,9.0,78,0.00,,CLR,0.00,272.00,VWS V14.01,2013-04-13 13:38:00,
2013-04-13 09:40:00,81.4,73.5,29.95,SW,227,9.0,9.0,77,0.00,,CLR,0.00,251.00,VWS V14.01,2013-04-13 13:40:00,
2013-04-13 09:44:00,81.5,73.6,29.95,South,182,8.0,11.0,77,0.00,,CLR,0.00,221.00,VWS V14.01,2013-04-13 13:44:00,
2013-04-13 09:45:00,81.5,73.6,29.95,SW,232,5.0,11.0,77,0.00,,CLR,0.00,221.00,VWS V14.01,2013-04-13 13:45:00,
2013-04-13 09:49:00,81.5,73.6,29.95,SSW,210,9.0,13.0,77,0.00,,CLR,0.00,216.00,VWS V14.01,2013-04-13 13:49:00,
2013-04-13 09:50:00,81.5,73.6,29.95,South,183,9.0,13.0,77,0.00,,CLR,0.00,216.00,VWS V14.01,2013-04-13 13:50:00,
2013-04-13 09:54:00,81.5,73.6,29.96,SSW,198,7.0,11.0,77,0.00,,CLR,0.00,297.00,VWS V14.01,2013-04-13 13:54:00,
2013-04-13 09:55:00,81.6,73.3,29.96,SSW,213,6.0,14.0,76,0.00,,CLR,0.00,297.00,VWS V14.01,2013-04-13 13:55:00,
2013-04-13 09:59:00,81.8,73.9,29.96,SSW,202,5.0,8.0,77,0.00,,CLR,0.00,269.00,VWS V14.01,2013-04-13 13:59:00,
2013-04-13 10:00:00,81.8,73.9,29.96,SW,231,6.0,9.0,77,0.00,,CLR,0.00,269.00,VWS V14.01,2013-04-13 14:00:00,
2013-04-13 10:04:00,81.7,74.2,29.96,SW,218,15.0,15.0,78,0.00,,CLR,0.00,211.00,VWS V14.01,2013-04-13 14:04:00,
2013-04-13 10:05:00,81.7,73.8,29.96,SSW,198,4.0,9.0,77,0.00,,CLR,0.00,211.00,VWS V14.01,2013-04-13 14:05:00,
2013-04-13 10:09:00,81.6,73.7,29.96,SSW,201,9.0,10.0,77,0.00,,CLR,0.00,148.00,VWS V14.01,2013-04-13 14:09:00,
2013-04-13 10:10:00,81.6,73.7,29.96,SW,227,6.0,9.0,77,0.00,,CLR,0.00,162.00,VWS V14.01,2013-04-13 14:10:00,
2013-04-13 10:14:00,81.5,73.6,29.97,WSW,238,2.0,10.0,77,0.00,,CLR,0.00,134.00,VWS V14.01,2013-04-13 14:14:00,
2013-04-13 10:15:00,81.5,73.6,29.97,SW,229,3.0,10.0,77,0.00,,CLR,0.00,125.00,VWS V14.01,2013-04-13 14:15:00,
2013-04-13 10:19:00,81.4,74.3,29.97,SW,232,3.0,3.0,79,0.00,,CLR,0.00,178.00,VWS V14.01,2013-04-13 14:19:00,
2013-04-13 10:20:00,81.4,74.3,29.97,SSW,204,2.0,4.0,79,0.00,,CLR,0.00,167.00,VWS V14.01,2013-04-13 14:20:00,
2013-04-13 10:24:00,81.6,74.5,29.97,WSW,239,2.0,4.0,79,0.00,,CLR,0.00,160.00,VWS V14.01,2013-04-13 14:24:00,
2013-04-13 10:25:00,81.5,74.4,29.97,WSW,240,3.0,6.0,79,0.00,,CLR,0.00,163.00,VWS V14.01,2013-04-13 14:25:00,
2013-04-13 10:29:00,81.6,73.7,29.98,South,180,3.0,7.0,77,0.00,,CLR,0.00,200.00,VWS V14.01,2013-04-13 14:29:00,
2013-04-13 10:30:00,81.6,73.7,29.98,SSW,212,4.0,7.0,77,0.00,,CLR,0.00,200.00,VWS V14.01,2013-04-13 14:30:00,
2013-04-13 10:34:00,81.7,74.2,29.98,SW,229,6.0,7.0,78,0.00,,CLR,0.00,223.00,VWS V14.01,2013-04-13 14:34:00,
2013-04-13 10:35:00,81.7,74.2,29.98,SSW,205,2.0,4.0,78,0.00,,CLR,0.00,229.00,VWS V14.01,2013-04-13 14:35:00,
2013-04-13 10:39:00,81.8,74.3,29.98,SSE,167,2.0,5.0,78,0.00,,OVC080,0.00,237.00,VWS V14.01,2013-04-13 14:39:00,
2013-04-13 10:40:00,81.8,74.3,29.98,SSW,205,3.0,7.0,78,0.00,,CLR,0.00,223.00,VWS V14.01,2013-04-13 14:40:00,
2013-04-13 10:44:00,82.1,74.2,29.98,SSE,162,5.0,6.0,77,0.00,,OVC080,0.00,439.00,VWS V14.01,2013-04-13 14:44:00,
2013-04-13 10:45:00,82.0,74.5,29.98,SE,137,4.0,5.0,78,0.00,,CLR,0.00,404.00,VWS V14.01,2013-04-13 14:45:00,
2013-04-13 10:49:00,82.5,74.2,29.97,South,180,3.0,6.0,76,0.00,,OVC080,0.00,404.00,VWS V14.01,2013-04-13 14:49:00,
2013-04-13 10:50:00,82.4,74.1,29.97,SSW,204,5.0,9.0,76,0.00,,CLR,0.00,404.00,VWS V14.01,2013-04-13 14:50:00,
2013-04-13 10:54:00,83.1,74.4,29.98,South,176,7.0,8.0,75,0.00,,OVC080,0.00,250.00,VWS V14.01,2013-04-13 14:54:00,
2013-04-13 10:55:00,83.0,74.7,29.97,SW,216,4.0,8.0,76,0.00,,CLR,0.00,297.00,VWS V14.01,2013-04-13 14:55:00,
2013-04-13 11:00:00,83.1,74.4,29.98,SSW,209,5.0,5.0,75,0.00,,OVC080,0.00,97.00,VWS V14.01,2013-04-13 15:00:00,
2013-04-13 11:05:00,82.7,74.4,29.98,WSW,253,3.0,3.0,76,0.03,,OVC080,0.03,39.00,VWS V14.01,2013-04-13 15:05:00,
2013-04-13 11:10:00,82.1,75.7,29.99,WNW,300,4.0,8.0,81,0.09,,OVC080,0.09,26.00,VWS V14.01,2013-04-13 15:10:00,
2013-04-13 11:15:00,81.0,75.0,30.00,WNW,294,5.0,10.0,82,0.18,,OVC080,0.18,19.00,VWS V14.01,2013-04-13 15:15:00,
2013-04-13 11:20:00,79.3,73.3,29.99,NW,316,5.0,8.0,82,0.37,,OVC080,0.37,39.00,VWS V14.01,2013-04-13 15:20:00,
2013-04-13 11:25:00,76.9,71.7,29.99,NNW,346,0.0,1.0,84,0.57,,OVC080,0.57,114.00,VWS V14.01,2013-04-13 15:25:00,
2013-04-13 11:30:00,75.7,71.6,29.99,North,355,2.0,2.0,87,0.69,,CLR,0.69,128.00,VWS V14.01,2013-04-13 15:30:00,
2013-04-13 11:31:00,75.5,72.0,30.00,ESE,123,2.0,2.0,89,0.74,,OVC080,0.74,104.00,VWS V14.01,2013-04-13 15:31:00,
2013-04-13 11:35:00,75.2,72.1,30.00,ESE,123,0.0,2.0,90,0.77,,CLR,0.77,83.00,VWS V14.01,2013-04-13 15:35:00,
2013-04-13 11:36:00,75.1,72.3,30.00,ESE,123,0.0,1.0,91,0.77,,OVC080,0.77,84.00,VWS V14.01,2013-04-13 15:36:00,
2013-04-13 11:40:00,75.2,72.4,29.99,ESE,121,0.0,2.0,91,0.77,,CLR,0.77,81.00,VWS V14.01,2013-04-13 15:40:00,
2013-04-13 11:41:00,75.2,72.4,30.00,ESE,121,2.0,2.0,91,0.77,, +RA,0.77,74.00,VWS V14.01,2013-04-13 15:41:00,
2013-04-13 11:45:00,75.3,72.8,30.00,SSE,150,2.0,2.0,92,0.77,,CLR,0.77,62.00,VWS V14.01,2013-04-13 15:45:00,
2013-04-13 11:46:00,75.4,72.9,30.00,SSE,150,2.0,2.0,92,0.77,, +RA,0.77,58.00,VWS V14.01,2013-04-13 15:46:00,
2013-04-13 11:50:00,75.3,72.8,30.00,SSE,163,3.0,3.0,92,0.77,,CLR,0.77,62.00,VWS V14.01,2013-04-13 15:50:00,
2013-04-13 11:51:00,75.2,72.7,30.00,SSE,159,6.0,6.0,92,0.77,,BKN075,0.77,60.00,VWS V14.01,2013-04-13 15:51:00,
2013-04-13 11:55:00,75.2,72.7,30.00,South,182,3.0,6.0,92,0.77,,CLR,0.77,54.00,VWS V14.01,2013-04-13 15:55:00,
2013-04-13 11:56:00,75.2,72.7,30.00,South,180,2.0,4.0,92,0.77,,BKN075,0.77,42.00,VWS V14.01,2013-04-13 15:56:00,
2013-04-13 12:00:00,75.2,72.7,30.00,SE,138,3.0,3.0,92,0.77,,CLR,0.77,44.00,VWS V14.01,2013-04-13 16:00:00,
2013-04-13 12:01:00,75.2,72.7,29.99,SSE,158,1.0,2.0,92,0.77,,BKN075,0.77,47.00,VWS V14.01,2013-04-13 16:01:00,
2013-04-13 12:05:00,75.2,72.7,29.99,ESE,113,0.0,2.0,92,0.77,,CLR,0.77,49.00,VWS V14.01,2013-04-13 16:05:00,
2013-04-13 12:06:00,75.3,73.1,29.99,SSE,161,2.0,3.0,93,0.75,,BKN075,0.77,49.00,VWS V14.01,2013-04-13 16:06:00,
2013-04-13 12:10:00,75.4,73.2,29.99,SSW,195,3.0,4.0,93,0.75,,CLR,0.77,53.00,VWS V14.01,2013-04-13 16:10:00,
2013-04-13 12:11:00,75.4,73.2,30.00,South,183,4.0,8.0,93,0.68,,BKN075,0.77,58.00,VWS V14.01,2013-04-13 16:11:00,
2013-04-13 12:15:00,75.2,72.7,29.99,SSE,160,5.0,6.0,92,0.68,,CLR,0.77,69.00,VWS V14.01,2013-04-13 16:15:00,
2013-04-13 12:16:00,74.9,72.4,29.99,SSW,208,2.0,2.0,92,0.63,,BKN075,0.78,76.00,VWS V14.01,2013-04-13 16:16:00,
2013-04-13 12:20:00,74.8,72.3,29.99,SSW,213,1.0,5.0,92,0.63,,CLR,0.78,72.00,VWS V14.01,2013-04-13 16:20:00,
2013-04-13 12:22:00,74.5,72.0,29.99,South,176,4.0,4.0,92,0.47,,BKN075,0.79,56.00,VWS V14.01,2013-04-13 16:22:00,
2013-04-13 12:25:00,74.3,71.5,30.00,South,182,2.0,4.0,91,0.47,,CLR,0.79,44.00,VWS V14.01,2013-04-13 16:25:00,
2013-04-13 12:27:00,74.0,71.2,30.00,South,182,1.0,2.0,91,0.27,,BKN075,0.79,37.00,VWS V14.01,2013-04-13 16:27:00,
2013-04-13 12:30:00,73.9,71.1,30.00,South,181,1.0,3.0,91,0.27,,CLR,0.79,42.00,VWS V14.01,2013-04-13 16:30:00,
2013-04-13 12:32:00,73.8,71.3,29.99,SSE,163,1.0,1.0,92,0.10,,BKN075,0.79,42.00,VWS V14.01,2013-04-13 16:32:00,
2013-04-13 12:35:00,73.9,71.4,29.99,SSE,163,2.0,3.0,92,0.10,,CLR,0.79,44.00,VWS V14.01,2013-04-13 16:35:00,
2013-04-13 12:37:00,74.0,71.8,30.00,South,176,1.0,3.0,93,0.02,,BKN075,0.79,42.00,VWS V14.01,2013-04-13 16:37:00,
2013-04-13 12:40:00,74.1,71.9,30.00,South,176,0.0,1.0,93,0.02,,CLR,0.79,37.00,VWS V14.01,2013-04-13 16:40:00,
2013-04-13 12:42:00,74.2,72.1,30.00,SE,142,2.0,3.0,93,0.02,,-RA,0.79,28.00,VWS V14.01,2013-04-13 16:42:00,
2013-04-13 12:45:00,74.2,72.1,30.00,SSE,158,2.0,4.0,93,0.02,,CLR,0.79,26.00,VWS V14.01,2013-04-13 16:45:00,
2013-04-13 12:47:00,74.2,71.7,29.99,SE,126,1.0,3.0,92,0.02,,-RA,0.79,30.00,VWS V14.01,2013-04-13 16:47:00,
2013-04-13 12:50:00,74.3,72.2,29.99,ESE,110,1.0,3.0,93,0.02,,CLR,0.79,30.00,VWS V14.01,2013-04-13 16:50:00,
2013-04-13 12:52:00,74.2,71.7,29.99,ENE,66,1.0,3.0,92,0.02,,-RA,0.79,26.00,VWS V14.01,2013-04-13 16:52:00,
2013-04-13 12:55:00,74.2,71.7,29.99,ENE,66,0.0,3.0,92,0.02,,CLR,0.79,25.00,VWS V14.01,2013-04-13 16:55:00,
2013-04-13 12:57:00,74.2,71.7,29.99,ENE,66,2.0,2.0,92,0.02,,-RA,0.79,26.00,VWS V14.01,2013-04-13 16:57:00,
2013-04-13 13:00:00,74.2,71.7,29.99,ENE,66,2.0,2.0,92,0.02,,CLR,0.79,26.00,VWS V14.01,2013-04-13 17:00:00,
2013-04-13 13:02:00,74.3,72.2,29.99,ENE,64,1.0,3.0,93,0.02,,-RA,0.79,35.00,VWS V14.01,2013-04-13 17:02:00,
2013-04-13 13:05:00,74.3,72.2,29.99,ENE,65,1.0,2.0,93,0.02,,CLR,0.79,37.00,VWS V14.01,2013-04-13 17:05:00,
2013-04-13 13:07:00,74.2,71.7,29.98,SE,124,1.0,3.0,92,0.02,,-RA,0.79,49.00,VWS V14.01,2013-04-13 17:07:00,
2013-04-13 13:10:00,74.1,71.6,29.98,ENE,69,3.0,3.0,92,0.02,,CLR,0.79,58.00,VWS V14.01,2013-04-13 17:10:00,
2013-04-13 13:12:00,74.0,71.5,29.98,East,92,2.0,2.0,92,0.02,,-RA,0.79,88.00,VWS V14.01,2013-04-13 17:12:00,
2013-04-13 13:15:00,74.0,71.5,29.98,East,93,0.0,2.0,92,0.02,,CLR,0.79,95.00,VWS V14.01,2013-04-13 17:15:00,
2013-04-13 13:18:00,74.1,71.6,29.99,SE,124,1.0,3.0,92,0.02,,-RA,0.79,118.00,VWS V14.01,2013-04-13 17:18:00,
2013-04-13 13:20:00,74.1,71.9,29.99,SSE,153,2.0,3.0,93,0.02,,CLR,0.79,120.00,VWS V14.01,2013-04-13 17:20:00,
2013-04-13 13:23:00,74.4,72.2,29.98,SSE,153,1.0,1.0,93,0.01,,-RA,0.79,174.00,VWS V14.01,2013-04-13 17:23:00,
2013-04-13 13:25:00,74.5,72.3,29.97,SSE,153,0.0,2.0,93,0.01,,CLR,0.79,179.00,VWS V14.01,2013-04-13 17:25:00,
2013-04-13 13:28:00,74.6,72.1,29.97,SE,130,2.0,6.0,92,0.00,,-RA,0.79,158.00,VWS V14.01,2013-04-13 17:28:00,
2013-04-13 13:30:00,74.6,72.1,29.97,SSE,161,3.0,6.0,92,0.00,,CLR,0.79,153.00,VWS V14.01,2013-04-13 17:30:00,
2013-04-13 13:33:00,74.5,72.0,29.97,SE,140,3.0,4.0,92,0.00,,-RA,0.79,137.00,VWS V14.01,2013-04-13 17:33:00,
2013-04-13 13:35:00,74.5,72.0,29.97,SSE,157,5.0,5.0,92,0.00,,CLR,0.79,137.00,VWS V14.01,2013-04-13 17:35:00,
2013-04-13 13:38:00,74.6,72.1,29.96,SSE,157,4.0,4.0,92,0.00,,-RA,0.79,153.00,VWS V14.01,2013-04-13 17:38:00,
2013-04-13 13:40:00,74.6,72.1,29.96,SSE,156,4.0,5.0,92,0.00,,CLR,0.79,153.00,VWS V14.01,2013-04-13 17:40:00,
2013-04-13 13:43:00,74.9,72.4,29.97,SSE,154,4.0,7.0,92,0.00,,-RA,0.79,142.00,VWS V14.01,2013-04-13 17:43:00,
2013-04-13 13:45:00,74.9,72.4,29.97,SSE,162,4.0,7.0,92,0.00,,CLR,0.79,142.00,VWS V14.01,2013-04-13 17:45:00,
2013-04-13 13:48:00,74.8,71.7,29.98,SSW,211,3.0,8.0,90,0.00,,-RA,0.79,111.00,VWS V14.01,2013-04-13 17:48:00,
2013-04-13 13:50:00,74.8,71.7,29.98,SW,215,4.0,8.0,90,0.00,,CLR,0.79,111.00,VWS V14.01,2013-04-13 17:50:00,
2013-04-13 13:53:00,74.6,71.5,29.98,SSW,205,2.0,5.0,90,0.00,,-RA,0.79,93.00,VWS V14.01,2013-04-13 17:53:00,
2013-04-13 13:55:00,74.6,71.5,29.98,SSW,206,2.0,3.0,90,0.00,,CLR,0.79,93.00,VWS V14.01,2013-04-13 17:55:00,
2013-04-13 13:59:00,74.6,71.5,29.97,SW,229,5.0,7.0,90,0.00,,-RA,0.79,107.00,VWS V14.01,2013-04-13 17:59:00,
2013-04-13 14:00:00,74.5,71.4,29.97,SSW,211,4.0,7.0,90,0.00,,CLR,0.79,111.00,VWS V14.01,2013-04-13 18:00:00,
2013-04-13 14:04:00,74.6,71.5,29.98,SSW,212,7.0,7.0,90,0.00,,-RA,0.79,120.00,VWS V14.01,2013-04-13 18:04:00,
2013-04-13 14:05:00,74.6,71.5,29.98,SSW,212,7.0,7.0,90,0.00,,CLR,0.79,120.00,VWS V14.01,2013-04-13 18:05:00,
2013-04-13 14:09:00,74.5,71.1,29.98,South,178,5.0,9.0,89,0.00,,-RA,0.79,123.00,VWS V14.01,2013-04-13 18:09:00,
2013-04-13 14:10:00,74.5,71.1,29.98,SSE,163,3.0,10.0,89,0.00,,CLR,0.79,120.00,VWS V14.01,2013-04-13 18:10:00,
2013-04-13 14:14:00,74.4,70.9,29.98,SSW,202,7.0,11.0,89,0.00,,-RA,0.79,148.00,VWS V14.01,2013-04-13 18:14:00,
2013-04-13 14:15:00,74.4,70.9,29.99,SW,216,7.0,9.0,89,0.00,,CLR,0.79,146.00,VWS V14.01,2013-04-13 18:15:00,
2013-04-13 14:19:00,74.6,71.2,29.98,SSW,209,8.0,9.0,89,0.00,,-RA,0.79,179.00,VWS V14.01,2013-04-13 18:19:00,
2013-04-13 14:20:00,74.6,71.2,29.98,South,178,8.0,10.0,89,0.00,,CLR,0.79,179.00,VWS V14.01,2013-04-13 18:20:00,
2013-04-13 14:24:00,74.7,71.6,29.97,SSE,159,5.0,10.0,90,0.00,,-RA,0.79,209.00,VWS V14.01,2013-04-13 18:24:00,
2013-04-13 14:25:00,74.7,71.6,29.98,SSE,164,6.0,11.0,90,0.00,,CLR,0.79,207.00,VWS V14.01,2013-04-13 18:25:00,
2013-04-13 14:27:00,74.8,71.7,29.97,SSW,198,4.0,11.0,90,0.00,,-RA,0.79,218.00,VWS V14.01,2013-04-13 18:27:00,
2013-04-13 14:30:00,74.9,72.1,29.97,SW,231,10.0,12.0,91,0.00,,CLR,0.79,283.00,VWS V14.01,2013-04-13 18:30:00,
2013-04-13 14:32:00,75.0,72.2,29.96,SSE,162,7.0,13.0,91,0.00,,-RA,0.79,434.00,VWS V14.01,2013-04-13 18:32:00,
2013-04-13 14:35:00,75.1,72.3,29.96,SW,221,4.0,10.0,91,0.00,,CLR,0.79,434.00,VWS V14.01,2013-04-13 18:35:00,
2013-04-13 14:37:00,75.7,73.5,29.95,SW,234,9.0,10.0,93,0.00,,SCT080,0.79,434.00,VWS V14.01,2013-04-13 18:37:00,
2013-04-13 14:40:00,76.2,74.0,29.95,SW,227,6.0,14.0,93,0.00,,CLR,0.79,1083.00,VWS V14.01,2013-04-13 18:40:00,
2013-04-13 14:42:00,77.2,74.7,29.95,WSW,245,4.0,7.0,92,0.00,,SCT080,0.79,998.00,VWS V14.01,2013-04-13 18:42:00,
2013-04-13 14:45:00,77.8,74.6,29.95,SSW,212,5.0,12.0,90,0.00,,CLR,0.79,981.00,VWS V14.01,2013-04-13 18:45:00,
2013-04-13 14:47:00,78.4,74.2,29.95,SW,228,9.0,10.0,87,0.00,,SCT080,0.79,954.00,VWS V14.01,2013-04-13 18:47:00,
2013-04-13 14:50:00,78.7,73.5,29.95,South,178,4.0,10.0,84,0.00,,CLR,0.79,951.00,VWS V14.01,2013-04-13 18:50:00,
2013-04-13 14:52:00,79.6,73.6,29.94,South,173,7.0,11.0,82,0.00,,SCT080,0.79,976.00,VWS V14.01,2013-04-13 18:52:00,
2013-04-13 14:55:00,79.9,73.2,29.94,South,182,10.0,10.0,80,0.00,,CLR,0.79,997.00,VWS V14.01,2013-04-13 18:55:00,
2013-04-13 14:57:00,80.8,73.3,29.94,SSW,211,4.0,12.0,78,0.00,,SCT080,0.79,1083.00,VWS V14.01,2013-04-13 18:57:00,
2013-04-13 15:00:00,80.9,73.4,29.94,SW,220,8.0,10.0,78,0.00,,CLR,0.79,454.00,VWS V14.01,2013-04-13 19:00:00,
2013-04-13 15:02:00,81.4,74.3,29.94,SW,232,8.0,9.0,79,0.00,,SCT080,0.79,1053.00,VWS V14.01,2013-04-13 19:02:00,
2013-04-13 15:05:00,81.6,74.5,29.94,SSE,162,7.0,10.0,79,0.00,,CLR,0.79,977.00,VWS V14.01,2013-04-13 19:05:00,
2013-04-13 15:07:00,81.8,73.1,29.94,SSW,213,6.0,9.0,75,0.00,,SCT080,0.79,904.00,VWS V14.01,2013-04-13 19:07:00,
2013-04-13 15:10:00,81.9,73.2,29.94,South,178,5.0,10.0,75,0.00,,CLR,0.79,849.00,VWS V14.01,2013-04-13 19:10:00,
2013-04-13 15:12:00,82.1,73.4,29.94,SSE,150,6.0,13.0,75,0.00,,SCT080,0.79,824.00,VWS V14.01,2013-04-13 19:12:00,
2013-04-13 15:15:00,82.1,73.0,29.94,SE,138,7.0,11.0,74,0.00,,CLR,0.79,893.00,VWS V14.01,2013-04-13 19:15:00,
2013-04-13 15:17:00,82.1,73.8,29.94,SSW,196,6.0,8.0,76,0.00,,SCT080,0.79,905.00,VWS V14.01,2013-04-13 19:17:00,
2013-04-13 15:20:00,82.3,74.0,29.94,ESE,115,3.0,7.0,76,0.00,,CLR,0.79,904.00,VWS V14.01,2013-04-13 19:20:00,
2013-04-13 15:22:00,82.8,73.7,29.94,SSE,165,5.0,9.0,74,0.00,,SCT080,0.79,874.00,VWS V14.01,2013-04-13 19:22:00,
2013-04-13 15:25:00,82.8,73.3,29.94,South,173,2.0,8.0,73,0.00,,CLR,0.79,870.00,VWS V14.01,2013-04-13 19:25:00,
2013-04-13 15:28:00,83.1,73.1,29.94,South,172,6.0,12.0,72,0.00,,SCT080,0.79,849.00,VWS V14.01,2013-04-13 19:28:00,
2013-04-13 15:30:00,83.1,72.7,29.94,ESE,116,4.0,8.0,71,0.00,,CLR,0.79,851.00,VWS V14.01,2013-04-13 19:30:00,
2013-04-13 15:33:00,82.9,73.4,29.93,SSW,202,5.0,8.0,73,0.00,,SCT080,0.79,846.00,VWS V14.01,2013-04-13 19:33:00,
2013-04-13 15:35:00,82.9,72.9,29.94,SSW,205,8.0,10.0,72,0.00,,CLR,0.79,847.00,VWS V14.01,2013-04-13 19:35:00,
2013-04-13 15:38:00,83.3,73.3,29.94,South,173,2.0,11.0,72,0.00,,SCT075,0.79,851.00,VWS V14.01,2013-04-13 19:38:00,
2013-04-13 15:40:00,83.4,73.8,29.94,SSE,153,6.0,8.0,73,0.00,,CLR,0.79,858.00,VWS V14.01,2013-04-13 19:40:00,
2013-04-13 15:43:00,83.7,74.5,29.94,WSW,254,4.0,5.0,74,0.00,,SCT075,0.79,926.00,VWS V14.01,2013-04-13 19:43:00,
2013-04-13 15:45:00,83.9,74.7,29.94,SSW,207,7.0,10.0,74,0.00,,CLR,0.79,958.00,VWS V14.01,2013-04-13 19:45:00,
2013-04-13 15:48:00,83.9,73.5,29.93,SSE,159,3.0,7.0,71,0.00,,SCT075,0.79,933.00,VWS V14.01,2013-04-13 19:48:00,
2013-04-13 15:50:00,83.8,73.8,29.93,SE,138,3.0,6.0,72,0.00,,CLR,0.79,896.00,VWS V14.01,2013-04-13 19:50:00,
2013-04-13 15:53:00,83.8,73.8,29.93,SSE,162,6.0,9.0,72,0.00,,SCT075,0.79,814.00,VWS V14.01,2013-04-13 19:53:00,
2013-04-13 15:55:00,83.8,74.2,29.92,SSE,161,5.0,9.0,73,0.00,,CLR,0.79,809.00,VWS V14.01,2013-04-13 19:55:00,
2013-04-13 15:58:00,84.0,74.0,29.92,SSE,155,6.0,7.0,72,0.00,,SCT075,0.79,751.00,VWS V14.01,2013-04-13 19:58:00,
2013-04-13 16:00:00,83.9,73.9,29.92,SSE,161,2.0,7.0,72,0.00,,CLR,0.79,805.00,VWS V14.01,2013-04-13 20:00:00,
2013-04-13 16:03:00,84.0,74.4,29.92,SE,131,9.0,9.0,73,0.00,,SCT075,0.79,798.00,VWS V14.01,2013-04-13 20:03:00,
2013-04-13 16:05:00,84.0,74.0,29.92,SSW,207,6.0,9.0,72,0.00,,CLR,0.79,805.00,VWS V14.01,2013-04-13 20:05:00,
2013-04-13 16:08:00,84.2,73.8,29.92,South,175,5.0,5.0,71,0.00,,SCT075,0.79,612.00,VWS V14.01,2013-04-13 20:08:00,
2013-04-13 16:10:00,84.2,74.6,29.92,SW,234,6.0,8.0,73,0.00,,CLR,0.79,612.00,VWS V14.01,2013-04-13 20:10:00,
2013-04-13 16:13:00,84.7,74.3,29.92,SSW,198,1.0,5.0,71,0.00,,SCT075,0.79,809.00,VWS V14.01,2013-04-13 20:13:00,
2013-04-13 16:15:00,84.8,74.4,29.92,NW,308,1.0,5.0,71,0.00,,CLR,0.79,155.00,VWS V14.01,2013-04-13 20:15:00,
2013-04-13 16:18:00,84.6,73.7,29.92,ESE,120,1.0,7.0,70,0.00,,SCT075,0.79,135.00,VWS V14.01,2013-04-13 20:18:00,
2013-04-13 16:20:00,84.4,74.0,29.92,SSW,211,2.0,5.0,71,0.00,,CLR,0.79,127.00,VWS V14.01,2013-04-13 20:20:00,
2013-04-13 16:23:00,83.7,73.3,29.92,SSW,208,2.0,4.0,71,0.00,,SCT075,0.79,113.00,VWS V14.01,2013-04-13 20:23:00,
2013-04-13 16:25:00,83.6,73.6,29.92,SW,221,3.0,6.0,72,0.00,,CLR,0.79,109.00,VWS V14.01,2013-04-13 20:25:00,
2013-04-13 16:28:00,83.2,73.7,29.92,South,175,3.0,4.0,73,0.00,,SCT075,0.79,100.00,VWS V14.01,2013-04-13 20:28:00,
2013-04-13 16:30:00,83.1,73.6,29.92,SSW,205,1.0,3.0,73,0.00,,CLR,0.79,100.00,VWS V14.01,2013-04-13 20:30:00,
2013-04-13 16:33:00,82.8,73.7,29.92,WSW,248,2.0,3.0,74,0.00,,SCT075,0.79,95.00,VWS V14.01,2013-04-13 20:33:00,
2013-04-13 16:35:00,82.8,73.7,29.92,WSW,241,3.0,3.0,74,0.00,,CLR,0.79,95.00,VWS V14.01,2013-04-13 20:35:00,
2013-04-13 16:38:00,82.9,73.8,29.91,SSW,205,2.0,3.0,74,0.00,,SCT100,0.79,97.00,VWS V14.01,2013-04-13 20:38:00,
2013-04-13 16:40:00,82.8,73.7,29.92,WSW,237,2.0,5.0,74,0.00,,CLR,0.79,97.00,VWS V14.01,2013-04-13 20:40:00,
2013-04-13 16:43:00,82.9,73.8,29.92,SW,229,3.0,5.0,74,0.00,,SCT100,0.79,95.00,VWS V14.01,2013-04-13 20:43:00,
2013-04-13 16:45:00,82.9,73.4,29.92,WSW,254,3.0,5.0,73,0.00,,CLR,0.79,93.00,VWS V14.01,2013-04-13 20:45:00,
2013-04-13 16:48:00,83.1,73.6,29.91,WSW,257,2.0,4.0,73,0.00,,SCT100,0.79,97.00,VWS V14.01,2013-04-13 20:48:00,
2013-04-13 16:50:00,83.2,73.7,29.91,SW,234,2.0,3.0,73,0.00,,CLR,0.79,98.00,VWS V14.01,2013-04-13 20:50:00,
2013-04-13 16:53:00,83.1,73.1,29.91,WSW,251,4.0,4.0,72,0.00,,SCT100,0.79,105.00,VWS V14.01,2013-04-13 20:53:00,
2013-04-13 16:55:00,83.1,73.6,29.91,WSW,254,3.0,4.0,73,0.00,,CLR,0.79,111.00,VWS V14.01,2013-04-13 20:55:00,
2013-04-13 16:58:00,83.1,73.1,29.90,West,266,2.0,3.0,72,0.00,,SCT100,0.79,123.00,VWS V14.01,2013-04-13 20:58:00,
2013-04-13 17:00:00,83.1,73.1,29.90,West,266,1.0,2.0,72,0.00,,CLR,0.79,127.00,VWS V14.01,2013-04-13 21:00:00,
2013-04-13 17:03:00,83.3,73.3,29.90,WNW,284,1.0,3.0,72,0.00,,SCT100,0.79,148.00,VWS V14.01,2013-04-13 21:03:00,
2013-04-13 17:05:00,83.4,73.8,29.90,WNW,284,2.0,2.0,73,0.00,,CLR,0.79,461.00,VWS V14.01,2013-04-13 21:05:00,
2013-04-13 17:08:00,84.5,74.9,29.90,WNW,284,2.0,3.0,73,0.00,,SCT100,0.79,584.00,VWS V14.01,2013-04-13 21:08:00,
2013-04-13 17:10:00,84.7,74.3,29.90,WNW,284,2.0,3.0,71,0.00,,CLR,0.79,584.00,VWS V14.01,2013-04-13 21:10:00,
2013-04-13 17:13:00,85.0,74.1,29.91,WNW,295,2.0,4.0,70,0.00,,SCT100,0.79,169.00,VWS V14.01,2013-04-13 21:13:00,
2013-04-13 17:15:00,85.0,73.3,29.91,WNW,295,2.0,3.0,68,0.00,,CLR,0.79,160.00,VWS V14.01,2013-04-13 21:15:00,
2013-04-13 17:18:00,84.8,73.1,29.91,NW,320,3.0,6.0,68,0.00,,SCT100,0.79,127.00,VWS V14.01,2013-04-13 21:18:00,
2013-04-13 17:20:00,84.7,73.0,29.91,WNW,296,2.0,7.0,68,0.00,,CLR,0.79,118.00,VWS V14.01,2013-04-13 21:20:00,
2013-04-13 17:22:00,84.3,73.0,29.91,WNW,301,3.0,6.0,69,0.00,,SCT100,0.79,116.00,VWS V14.01,2013-04-13 21:22:00,
2013-04-13 17:25:00,84.3,73.0,29.91,WNW,294,4.0,6.0,69,0.00,,CLR,0.79,116.00,VWS V14.01,2013-04-13 21:25:00,
2013-04-13 17:27:00,84.1,73.3,29.91,WNW,290,4.0,5.0,70,0.00,,SCT100,0.79,111.00,VWS V14.01,2013-04-13 21:27:00,
2013-04-13 17:30:00,84.0,73.2,29.91,WNW,284,3.0,5.0,70,0.00,,CLR,0.79,109.00,VWS V14.01,2013-04-13 21:30:00,
2013-04-13 17:32:00,83.9,73.1,29.91,West,277,1.0,4.0,70,0.00,,SCT100,0.79,100.00,VWS V14.01,2013-04-13 21:32:00,
2013-04-13 17:35:00,83.8,73.0,29.91,West,277,2.0,3.0,70,0.00,,CLR,0.79,98.00,VWS V14.01,2013-04-13 21:35:00,
2013-04-13 17:37:00,83.8,73.0,29.91,WNW,286,1.0,4.0,70,0.00,,CLR,0.79,93.00,VWS V14.01,2013-04-13 21:37:00,
2013-04-13 17:40:00,83.8,73.4,29.91,WNW,291,6.0,6.0,71,0.00,,CLR,0.79,91.00,VWS V14.01,2013-04-13 21:40:00,
2013-04-13 17:42:00,83.7,73.3,29.91,NW,313,4.0,5.0,71,0.00,,CLR,0.79,90.00,VWS V14.01,2013-04-13 21:42:00,
2013-04-13 17:45:00,83.6,73.2,29.91,WNW,302,4.0,4.0,71,0.00,,CLR,0.79,90.00,VWS V14.01,2013-04-13 21:45:00,
2013-04-13 17:47:00,83.4,73.0,29.91,NNW,337,3.0,6.0,71,0.00,,CLR,0.79,100.00,VWS V14.01,2013-04-13 21:47:00,
2013-04-13 17:50:00,83.4,73.0,29.91,NW,312,4.0,5.0,71,0.00,,CLR,0.79,102.00,VWS V14.01,2013-04-13 21:50:00,
2013-04-13 17:52:00,83.3,72.9,29.91,NW,321,2.0,4.0,71,0.00,,CLR,0.79,109.00,VWS V14.01,2013-04-13 21:52:00,
2013-04-13 17:55:00,83.3,73.3,29.91,NNW,346,2.0,5.0,72,0.00,,CLR,0.79,111.00,VWS V14.01,2013-04-13 21:55:00,
2013-04-13 17:57:00,83.2,74.1,29.91,NNW,342,4.0,7.0,74,0.00,,CLR,0.79,120.00,VWS V14.01,2013-04-13 21:57:00,
2013-04-13 18:00:00,83.2,74.1,29.91,NNW,346,5.0,5.0,74,0.00,,CLR,0.79,123.00,VWS V14.01,2013-04-13 22:00:00,
2013-04-13 18:02:00,82.9,73.8,29.91,NNW,335,3.0,6.0,74,0.00,,CLR,0.79,132.00,VWS V14.01,2013-04-13 22:02:00,
2013-04-13 18:05:00,82.8,74.1,29.91,NNW,337,3.0,6.0,75,0.00,,CLR,0.79,135.00,VWS V14.01,2013-04-13 22:05:00,
2013-04-13 18:07:00,82.6,74.3,29.91,North,350,2.0,6.0,76,0.00,,CLR,0.79,155.00,VWS V14.01,2013-04-13 22:07:00,
2013-04-13 18:10:00,82.6,74.3,29.91,North,350,2.0,4.0,76,0.00,,CLR,0.79,155.00,VWS V14.01,2013-04-13 22:10:00,
2013-04-13 18:12:00,82.5,74.2,29.91,North,351,1.0,3.0,76,0.00,,CLR,0.79,292.00,VWS V14.01,2013-04-13 22:12:00,
2013-04-13 18:15:00,82.5,74.2,29.91,NNW,336,0.0,5.0,76,0.00,,CLR,0.79,313.00,VWS V14.01,2013-04-13 22:15:00,
2013-04-13 18:17:00,82.8,74.1,29.91,NNW,336,2.0,3.0,75,0.00,,CLR,0.79,267.00,VWS V14.01,2013-04-13 22:17:00,
2013-04-13 18:20:00,82.8,74.1,29.91,NNW,338,2.0,4.0,75,0.00,,CLR,0.79,346.00,VWS V14.01,2013-04-13 22:20:00,
2013-04-13 18:22:00,83.0,74.3,29.92,NNW,347,3.0,3.0,75,0.00,,CLR,0.79,315.00,VWS V14.01,2013-04-13 22:22:00,
2013-04-13 18:25:00,83.0,73.9,29.92,NNW,348,2.0,4.0,74,0.00,,CLR,0.79,292.00,VWS V14.01,2013-04-13 22:25:00,
2013-04-13 18:27:00,83.1,74.0,29.91,NNW,348,2.0,2.0,74,0.00,,CLR,0.79,265.00,VWS V14.01,2013-04-13 22:27:00,
2013-04-13 18:30:00,83.1,74.4,29.91,NNW,348,1.0,3.0,75,0.00,,CLR,0.79,183.00,VWS V14.01,2013-04-13 22:30:00,
2013-04-13 18:32:00,83.0,73.9,29.91,North,360,1.0,5.0,74,0.00,,CLR,0.79,77.00,VWS V14.01,2013-04-13 22:32:00,
2013-04-13 18:35:00,83.0,73.9,29.91,NNW,344,3.0,4.0,74,0.00,,CLR,0.79,74.00,VWS V14.01,2013-04-13 22:35:00,
2013-04-13 18:37:00,82.8,73.7,29.92,NNW,342,3.0,4.0,74,0.00,,CLR,0.79,63.00,VWS V14.01,2013-04-13 22:37:00,
2013-04-13 18:40:00,82.8,73.7,29.92,NNW,336,1.0,4.0,74,0.00,,CLR,0.79,62.00,VWS V14.01,2013-04-13 22:40:00,
2013-04-13 18:42:00,82.6,73.5,29.91,North,350,2.0,4.0,74,0.00,,CLR,0.79,65.00,VWS V14.01,2013-04-13 22:42:00,
2013-04-13 18:45:00,82.5,73.8,29.91,North,350,2.0,3.0,75,0.00,,CLR,0.79,67.00,VWS V14.01,2013-04-13 22:45:00,
2013-04-13 18:47:00,82.3,73.6,29.91,NNW,342,3.0,4.0,75,0.00,,CLR,0.79,72.00,VWS V14.01,2013-04-13 22:47:00,
2013-04-13 18:50:00,82.3,73.6,29.91,NNW,338,1.0,5.0,75,0.00,,CLR,0.79,70.00,VWS V14.01,2013-04-13 22:50:00,
2013-04-13 18:52:00,82.3,74.0,29.91,NNW,342,3.0,3.0,76,0.00,,CLR,0.79,63.00,VWS V14.01,2013-04-13 22:52:00,
2013-04-13 18:55:00,82.3,74.0,29.91,NW,323,2.0,6.0,76,0.00,,CLR,0.79,63.00,VWS V14.01,2013-04-13 22:55:00,
2013-04-13 18:57:00,82.2,73.9,29.91,NNW,337,2.0,3.0,76,0.00,,CLR,0.79,47.00,VWS V14.01,2013-04-13 22:57:00,
2013-04-13 19:00:00,82.1,74.2,29.92,NNW,337,1.0,2.0,77,0.00,,CLR,0.79,44.00,VWS V14.01,2013-04-13 23:00:00,
2013-04-13 19:02:00,82.0,74.1,29.92,NNW,337,1.0,3.0,77,0.00,,CLR,0.79,39.00,VWS V14.01,2013-04-13 23:02:00,
2013-04-13 19:05:00,81.9,74.0,29.91,NNW,337,0.0,1.0,77,0.00,,CLR,0.79,35.00,VWS V14.01,2013-04-13 23:05:00,
2013-04-13 19:07:00,81.6,73.7,29.91,NNW,337,0.0,0.0,77,0.00,,CLR,0.79,33.00,VWS V14.01,2013-04-13 23:07:00,
2013-04-13 19:10:00,81.6,73.7,29.91,NNW,337,0.0,1.0,77,0.00,,CLR,0.79,33.00,VWS V14.01,2013-04-13 23:10:00,
2013-04-13 19:12:00,81.4,73.5,29.91,NNW,337,0.0,0.0,77,0.00,,CLR,0.79,35.00,VWS V14.01,2013-04-13 23:12:00,
2013-04-13 19:15:00,81.3,73.8,29.91,NNW,337,0.0,1.0,78,0.00,,CLR,0.79,35.00,VWS V14.01,2013-04-13 23:15:00,
2013-04-13 19:17:00,81.2,73.7,29.91,NNW,337,1.0,1.0,78,0.00,,CLR,0.79,28.00,VWS V14.01,2013-04-13 23:17:00,
2013-04-13 19:20:00,81.1,73.6,29.91,NNW,337,1.0,1.0,78,0.00,,CLR,0.79,25.00,VWS V14.01,2013-04-13 23:20:00,
2013-04-13 19:22:00,81.0,73.5,29.91,NNW,337,1.0,1.0,78,0.00,,CLR,0.79,16.00,VWS V14.01,2013-04-13 23:22:00,
2013-04-13 19:25:00,80.9,73.4,29.91,NNW,337,1.0,2.0,78,0.00,,CLR,0.79,16.00,VWS V14.01,2013-04-13 23:25:00,
2013-04-13 19:27:00,80.8,73.3,29.91,NNW,337,0.0,2.0,78,0.00,,CLR,0.79,16.00,VWS V14.01,2013-04-13 23:27:00,
2013-04-13 19:30:00,80.8,73.7,29.91,NNW,337,1.0,1.0,79,0.00,,CLR,0.79,16.00,VWS V14.01,2013-04-13 23:30:00,
2013-04-13 19:32:00,80.7,73.6,29.92,NNW,337,1.0,2.0,79,0.00,,CLR,0.79,12.00,VWS V14.01,2013-04-13 23:32:00,
2013-04-13 19:35:00,80.6,73.5,29.92,NNW,337,1.0,2.0,79,0.00,,CLR,0.79,11.00,VWS V14.01,2013-04-13 23:35:00,
2013-04-13 19:37:00,80.5,73.8,29.92,NNW,338,2.0,3.0,80,0.00,,CLR,0.79,5.00,VWS V14.01,2013-04-13 23:37:00,
2013-04-13 19:40:00,80.5,73.8,29.92,NNW,338,3.0,3.0,80,0.00,,CLR,0.79,5.00,VWS V14.01,2013-04-13 23:40:00,
2013-04-13 19:42:00,80.4,73.7,29.93,NNW,338,1.0,3.0,80,0.00,,CLR,0.79,0.00,VWS V14.01,2013-04-13 23:42:00,
2013-04-13 19:45:00,80.4,73.7,29.93,NNW,347,2.0,7.0,80,0.00,,CLR,0.79,0.00,VWS V14.01,2013-04-13 23:45:00,
2013-04-13 19:47:00,80.5,74.1,29.92,NNW,348,0.0,2.0,81,0.00,,CLR,0.79,0.00,VWS V14.01,2013-04-13 23:47:00,
2013-04-13 19:50:00,80.4,74.0,29.92,NNW,336,5.0,5.0,81,0.00,,CLR,0.79,0.00,VWS V14.01,2013-04-13 23:50:00,
2013-04-13 19:52:00,80.3,73.9,29.93,North,5,4.0,6.0,81,0.00,,CLR,0.79,0.00,VWS V14.01,2013-04-13 23:52:00,
2013-04-13 19:55:00,80.3,73.9,29.93,North,355,2.0,6.0,81,0.00,,CLR,0.79,0.00,VWS V14.01,2013-04-13 23:55:00,
2013-04-13 19:57:00,80.0,74.0,29.93,North,355,3.0,3.0,82,0.00,,CLR,0.79,0.00,VWS V14.01,2013-04-13 23:57:00,
2013-04-13 20:00:00,79.9,73.9,29.93,North,355,3.0,5.0,82,0.00,,CLR,0.79,0.00,VWS V14.01,2013-04-14 00:00:00,
2013-04-13 20:02:00,79.6,73.6,29.93,North,355,4.0,4.0,82,0.00,,CLR,0.79,0.00,VWS V14.01,2013-04-14 00:02:00,
2013-04-13 20:05:00,79.6,74.0,29.93,North,355,1.0,4.0,83,0.00,,CLR,0.79,0.00,VWS V14.01,2013-04-14 00:05:00,
2013-04-13 20:07:00,79.3,73.7,29.93,North,355,2.0,3.0,83,0.00,,SCT039,0.79,0.00,VWS V14.01,2013-04-14 00:07:00,
2013-04-13 20:10:00,79.2,73.6,29.93,North,355,1.0,3.0,83,0.00,,CLR,0.79,0.00,VWS V14.01,2013-04-14 00:10:00,
2013-04-13 20:12:00,79.0,73.8,29.93,North,355,1.0,3.0,84,0.00,,SCT039,0.79,0.00,VWS V14.01,2013-04-14 00:12:00,
2013-04-13 20:15:00,79.0,73.8,29.93,North,355,2.0,3.0,84,0.00,,CLR,0.79,0.00,VWS V14.01,2013-04-14 00:15:00,
2013-04-13 20:17:00,78.8,73.6,29.93,North,355,2.0,3.0,84,0.00,,SCT039,0.79,0.00,VWS V14.01,2013-04-14 00:17:00,
2013-04-13 20:20:00,78.8,73.6,29.93,North,355,1.0,2.0,84,0.00,,CLR,0.79,0.00,VWS V14.01,2013-04-14 00:20:00,
2013-04-13 20:22:00,78.6,73.4,29.93,North,360,1.0,2.0,84,0.00,,SCT039,0.79,0.00,VWS V14.01,2013-04-14 00:22:00,
2013-04-13 20:25:00,78.5,73.3,29.93,North,360,2.0,2.0,84,0.00,,CLR,0.79,0.00,VWS V14.01,2013-04-14 00:25:00,
2013-04-13 20:27:00,78.4,73.2,29.93,North,360,0.0,2.0,84,0.00,,SCT039,0.79,0.00,VWS V14.01,2013-04-14 00:27:00,
2013-04-13 20:30:00,78.3,73.1,29.93,North,360,1.0,2.0,84,0.00,,CLR,0.79,0.00,VWS V14.01,2013-04-14 00:30:00,
2013-04-13 20:32:00,78.2,73.3,29.93,North,360,1.0,2.0,85,0.00,,SCT039,0.79,0.00,VWS V14.01,2013-04-14 00:32:00,
2013-04-13 20:35:00,78.2,73.3,29.93,NNE,28,3.0,3.0,85,0.00,,CLR,0.79,0.00,VWS V14.01,2013-04-14 00:35:00,
2013-04-13 20:37:00,78.1,73.2,29.93,NNE,32,0.0,4.0,85,0.00,,SCT039,0.79,0.00,VWS V14.01,2013-04-14 00:37:00,
2013-04-13 20:40:00,78.0,73.1,29.93,NNE,32,1.0,2.0,85,0.00,,CLR,0.79,0.00,VWS V14.01,2013-04-14 00:40:00,
2013-04-13 20:42:00,78.0,73.5,29.94,NE,42,1.0,2.0,86,0.00,,SCT039,0.79,0.00,VWS V14.01,2013-04-14 00:42:00,
2013-04-13 20:45:00,78.0,73.5,29.94,NE,41,1.0,2.0,86,0.00,,CLR,0.79,0.00,VWS V14.01,2013-04-14 00:45:00,
2013-04-13 20:47:00,77.9,73.4,29.94,NE,41,2.0,3.0,86,0.00,,SCT039,0.79,0.00,VWS V14.01,2013-04-14 00:47:00,
2013-04-13 20:50:00,77.9,73.4,29.94,NE,41,2.0,2.0,86,0.00,,CLR,0.79,0.00,VWS V14.01,2013-04-14 00:50:00,
2013-04-13 20:52:00,77.8,73.3,29.94,NE,42,1.0,4.0,86,0.00,,SCT039,0.79,0.00,VWS V14.01,2013-04-14 00:52:00,
2013-04-13 20:55:00,77.8,73.3,29.94,NE,42,2.0,3.0,86,0.00,,CLR,0.79,0.00,VWS V14.01,2013-04-14 00:55:00,
2013-04-13 20:57:00,77.8,73.3,29.94,NNE,33,3.0,3.0,86,0.00,,SCT039,0.79,0.00,VWS V14.01,2013-04-14 00:57:00,
2013-04-13 21:00:00,77.7,73.2,29.95,NNE,30,1.0,4.0,86,0.00,,CLR,0.79,0.00,VWS V14.01,2013-04-14 01:00:00,
2013-04-13 21:02:00,77.7,73.2,29.95,NNE,32,1.0,4.0,86,0.00,,SCT039,0.79,0.00,VWS V14.01,2013-04-14 01:02:00,
2013-04-13 21:05:00,77.7,73.2,29.95,NNE,32,1.0,2.0,86,0.00,,CLR,0.79,0.00,VWS V14.01,2013-04-14 01:05:00,
2013-04-13 21:07:00,77.7,73.2,29.95,NE,43,3.0,3.0,86,0.00,,SCT039,0.79,0.00,VWS V14.01,2013-04-14 01:07:00,
2013-04-13 21:10:00,77.7,73.2,29.95,NE,41,6.0,9.0,86,0.00,,CLR,0.79,0.00,VWS V14.01,2013-04-14 01:10:00,
2013-04-13 21:12:00,77.7,72.8,29.95,NE,34,5.0,8.0,85,0.00,,SCT039,0.79,0.00,VWS V14.01,2013-04-14 01:12:00,
2013-04-13 21:15:00,77.7,72.8,29.95,NE,41,3.0,8.0,85,0.00,,CLR,0.79,0.00,VWS V14.01,2013-04-14 01:15:00,
2013-04-13 21:17:00,77.6,72.7,29.95,NE,51,2.0,7.0,85,0.00,,SCT039,0.79,0.00,VWS V14.01,2013-04-14 01:17:00,
2013-04-13 21:20:00,77.6,72.4,29.96,NE,37,4.0,5.0,84,0.00,,CLR,0.79,0.00,VWS V14.01,2013-04-14 01:20:00,
2013-04-13 21:22:00,77.6,72.4,29.96,NE,44,4.0,4.0,84,0.00,,SCT039,0.79,0.00,VWS V14.01,2013-04-14 01:22:00,
2013-04-13 21:25:00,77.6,72.4,29.96,NE,36,4.0,4.0,84,0.00,,CLR,0.79,0.00,VWS V14.01,2013-04-14 01:25:00,
2013-04-13 21:27:00,77.6,72.0,29.96,NE,37,5.0,5.0,83,0.00,,SCT039,0.79,0.00,VWS V14.01,2013-04-14 01:27:00,
2013-04-13 21:30:00,77.6,72.0,29.95,NE,39,3.0,5.0,83,0.00,,CLR,0.79,0.00,VWS V14.01,2013-04-14 01:30:00,
2013-04-13 21:32:00,77.6,72.0,29.96,NE,36,2.0,5.0,83,0.00,,SCT039,0.79,0.00,VWS V14.01,2013-04-14 01:32:00,
2013-04-13 21:35:00,77.7,72.1,29.96,NE,39,5.0,7.0,83,0.00,,CLR,0.79,0.00,VWS V14.01,2013-04-14 01:35:00,
2013-04-13 21:37:00,77.7,72.1,29.96,NE,49,4.0,4.0,83,0.00,,CLR,0.79,0.00,VWS V14.01,2013-04-14 01:37:00,
2013-04-13 21:40:00,77.7,72.1,29.96,NE,40,2.0,4.0,83,0.00,,CLR,0.79,0.00,VWS V14.01,2013-04-14 01:40:00,
2013-04-13 21:42:00,77.7,71.8,29.96,East,95,2.0,2.0,82,0.00,,CLR,0.79,0.00,VWS V14.01,2013-04-14 01:42:00,
2013-04-13 21:45:00,77.7,71.8,29.96,ESE,113,2.0,3.0,82,0.00,,CLR,0.79,0.00,VWS V14.01,2013-04-14 01:45:00,
2013-04-13 21:47:00,77.6,71.3,29.96,SE,131,1.0,5.0,81,0.00,,CLR,0.79,0.00,VWS V14.01,2013-04-14 01:47:00,
2013-04-13 21:50:00,77.5,71.2,29.96,SE,131,2.0,3.0,81,0.00,,CLR,0.79,0.00,VWS V14.01,2013-04-14 01:50:00,
2013-04-13 21:52:00,77.4,71.1,29.96,South,173,2.0,3.0,81,0.00,,CLR,0.79,0.00,VWS V14.01,2013-04-14 01:52:00,
2013-04-13 21:55:00,77.4,71.1,29.96,South,170,1.0,3.0,81,0.00,,CLR,0.79,0.00,VWS V14.01,2013-04-14 01:55:00,
2013-04-13 21:57:00,77.4,71.1,29.96,South,184,1.0,2.0,81,0.00,,CLR,0.79,0.00,VWS V14.01,2013-04-14 01:57:00,
2013-04-13 22:00:00,77.4,71.1,29.96,SE,143,2.0,5.0,81,0.00,,CLR,0.79,0.00,VWS V14.01,2013-04-14 02:00:00,
2013-04-13 22:02:00,77.3,71.0,29.96,SSE,155,1.0,4.0,81,0.00,,CLR,0.79,0.00,VWS V14.01,2013-04-14 02:02:00,
2013-04-13 22:05:00,77.3,71.0,29.96,SSE,163,4.0,6.0,81,0.00,,CLR,0.79,0.00,VWS V14.01,2013-04-14 02:05:00,
2013-04-13 22:07:00,77.3,71.0,29.96,SSE,165,2.0,5.0,81,0.00,,CLR,0.79,0.00,VWS V14.01,2013-04-14 02:07:00,
2013-04-13 22:10:00,77.3,71.0,29.97,SE,128,2.0,3.0,81,0.00,,CLR,0.79,0.00,VWS V14.01,2013-04-14 02:10:00,
2013-04-13 22:12:00,77.4,71.1,29.97,SE,139,1.0,3.0,81,0.00,,CLR,0.79,0.00,VWS V14.01,2013-04-14 02:12:00,
2013-04-13 22:15:00,77.4,71.1,29.97,SE,138,1.0,2.0,81,0.00,,CLR,0.79,0.00,VWS V14.01,2013-04-14 02:15:00,
2013-04-13 22:17:00,77.4,71.1,29.97,SE,139,0.0,1.0,81,0.00,,CLR,0.79,0.00,VWS V14.01,2013-04-14 02:17:00,
2013-04-13 22:20:00,77.4,71.1,29.97,SE,139,0.0,1.0,81,0.00,,CLR,0.79,0.00,VWS V14.01,2013-04-14 02:20:00,
2013-04-13 22:22:00,77.4,71.5,29.97,SE,139,1.0,2.0,82,0.00,,CLR,0.79,0.00,VWS V14.01,2013-04-14 02:22:00,
2013-04-13 22:25:00,77.4,71.5,29.97,SE,139,0.0,2.0,82,0.00,,CLR,0.79,0.00,VWS V14.01,2013-04-14 02:25:00,
2013-04-13 22:28:00,77.4,71.5,29.98,SE,139,0.0,2.0,82,0.00,,CLR,0.79,0.00,VWS V14.01,2013-04-14 02:28:00,
2013-04-13 22:30:00,77.4,71.5,29.98,SE,139,0.0,1.0,82,0.00,,CLR,0.79,0.00,VWS V14.01,2013-04-14 02:30:00,
2013-04-13 22:32:00,77.4,71.5,29.98,SE,138,0.0,1.0,82,0.00,,CLR,0.79,0.00,VWS V14.01,2013-04-14 02:32:00,
2013-04-13 22:35:00,77.4,71.5,29.98,SE,138,0.0,1.0,82,0.00,,CLR,0.79,0.00,VWS V14.01,2013-04-14 02:35:00,
2013-04-13 22:37:00,77.3,71.4,29.98,SE,139,1.0,2.0,82,0.00,,FEW033,0.79,0.00,VWS V14.01,2013-04-14 02:37:00,
2013-04-13 22:40:00,77.3,71.7,29.97,SE,140,2.0,2.0,83,0.00,,CLR,0.79,0.00,VWS V14.01,2013-04-14 02:40:00,
2013-04-13 22:42:00,77.3,71.7,29.97,SSE,150,1.0,2.0,83,0.00,,FEW033,0.79,0.00,VWS V14.01,2013-04-14 02:42:00,
2013-04-13 22:45:00,77.2,71.6,29.97,SSE,150,1.0,2.0,83,0.00,,CLR,0.79,0.00,VWS V14.01,2013-04-14 02:45:00,
2013-04-13 22:48:00,77.2,71.6,29.98,SSE,150,1.0,2.0,83,0.00,,FEW033,0.79,0.00,VWS V14.01,2013-04-14 02:48:00,
2013-04-13 22:50:00,77.2,72.0,29.97,SSE,150,0.0,1.0,84,0.00,,CLR,0.79,0.00,VWS V14.01,2013-04-14 02:50:00,
2013-04-13 22:53:00,77.1,71.9,29.98,SSE,150,0.0,0.0,84,0.00,,FEW033,0.79,0.00,VWS V14.01,2013-04-14 02:53:00,
2013-04-13 22:55:00,77.1,71.9,29.97,SSE,150,1.0,2.0,84,0.00,,CLR,0.79,0.00,VWS V14.01,2013-04-14 02:55:00,
2013-04-13 22:58:00,77.1,71.9,29.97,SSE,150,0.0,2.0,84,0.00,,FEW033,0.79,0.00,VWS V14.01,2013-04-14 02:58:00,
2013-04-13 23:00:00,77.0,71.8,29.97,SSE,150,0.0,1.0,84,0.00,,CLR,0.79,0.00,VWS V14.01,2013-04-14 03:00:00,
2013-04-13 23:02:00,77.0,72.2,29.97,SSE,150,0.0,0.0,85,0.00,,FEW033,0.79,0.00,VWS V14.01,2013-04-14 03:02:00,
2013-04-13 23:05:00,77.1,72.2,29.97,SSE,150,0.0,0.0,85,0.00,,CLR,0.79,0.00,VWS V14.01,2013-04-14 03:05:00,
2013-04-13 23:08:00,77.1,72.2,29.98,SSE,150,0.0,0.0,85,0.00,,FEW033,0.79,0.00,VWS V14.01,2013-04-14 03:08:00,
2013-04-13 23:10:00,77.0,72.2,29.98,SSE,150,0.0,1.0,85,0.00,,CLR,0.79,0.00,VWS V14.01,2013-04-14 03:10:00,
2013-04-13 23:13:00,77.0,72.2,29.98,SE,142,1.0,2.0,85,0.00,,FEW033,0.79,0.00,VWS V14.01,2013-04-14 03:13:00,
2013-04-13 23:15:00,77.0,72.2,29.98,SE,142,0.0,2.0,85,0.00,,CLR,0.79,0.00,VWS V14.01,2013-04-14 03:15:00,
2013-04-13 23:18:00,76.8,71.9,29.98,SE,142,0.0,1.0,85,0.00,,FEW033,0.79,0.00,VWS V14.01,2013-04-14 03:18:00,
2013-04-13 23:20:00,76.7,71.9,29.98,SE,142,0.0,1.0,85,0.00,,CLR,0.79,0.00,VWS V14.01,2013-04-14 03:20:00,
2013-04-13 23:23:00,76.5,72.0,29.98,SE,142,0.0,0.0,86,0.00,,FEW033,0.79,0.00,VWS V14.01,2013-04-14 03:23:00,
2013-04-13 23:25:00,76.5,72.0,29.98,SE,142,0.0,0.0,86,0.00,,CLR,0.79,0.00,VWS V14.01,2013-04-14 03:25:00,
2013-04-13 23:28:00,76.4,71.9,29.98,SE,142,0.0,1.0,86,0.00,,FEW033,0.79,0.00,VWS V14.01,2013-04-14 03:28:00,
2013-04-13 23:30:00,76.3,71.8,29.98,SE,142,0.0,0.0,86,0.00,,CLR,0.79,0.00,VWS V14.01,2013-04-14 03:30:00,
2013-04-13 23:33:00,76.2,72.1,29.97,SE,142,0.0,0.0,87,0.00,,FEW033,0.79,0.00,VWS V14.01,2013-04-14 03:33:00,
2013-04-13 23:35:00,76.2,72.1,29.97,SE,142,0.0,0.0,87,0.00,,CLR,0.79,0.00,VWS V14.01,2013-04-14 03:35:00,
2013-04-13 23:38:00,76.1,71.9,29.98,SE,142,0.0,0.0,87,0.00,,BKN085,0.79,0.00,VWS V14.01,2013-04-14 03:38:00,
2013-04-13 23:40:00,76.1,71.9,29.98,SE,142,0.0,0.0,87,0.00,,CLR,0.79,0.00,VWS V14.01,2013-04-14 03:40:00,
2013-04-13 23:43:00,75.9,71.8,29.98,SE,142,0.0,0.0,87,0.00,,BKN085,0.79,0.00,VWS V14.01,2013-04-14 03:43:00,
2013-04-13 23:45:00,75.9,71.8,29.97,SE,142,0.0,0.0,87,0.00,,CLR,0.79,0.00,VWS V14.01,2013-04-14 03:45:00,
2013-04-13 23:48:00,75.8,72.0,29.97,SE,142,0.0,1.0,88,0.00,,BKN085,0.79,0.00,VWS V14.01,2013-04-14 03:48:00,
2013-04-13 23:50:00,75.7,71.9,29.97,SE,142,0.0,1.0,88,0.00,,CLR,0.79,0.00,VWS V14.01,2013-04-14 03:50:00,
2013-04-13 23:53:00,75.7,72.2,29.97,SE,142,0.0,1.0,89,0.00,,BKN085,0.79,0.00,VWS V14.01,2013-04-14 03:53:00,
2013-04-13 23:55:00,75.7,72.2,29.97,SE,142,0.0,0.0,89,0.00,,CLR,0.79,0.00,VWS V14.01,2013-04-14 03:55:00,
2013-04-13 23:58:00,75.7,72.2,29.97,SE,142,1.0,2.0,89,0.00,,BKN085,0.79,0.00,VWS V14.01,2013-04-14 03:58:00,